TimeCDT,TemperatureF,Dew PointF,Humidity,Sea Level PressureIn,VisibilityMPH,Wind Direction,Wind SpeedMPH,Gust SpeedMPH,PrecipitationIn,Events,Conditions,WindDirDegrees,DateUTC
12:13 AM,59.0,51.8,77,30.06,10.0,East,6.9,-,N/A,,Clear,90,2013-06-18 05:13:00
12:33 AM,59.0,51.8,77,30.06,10.0,East,8.1,-,N/A,,Clear,90,2013-06-18 05:33:00
12:53 AM,57.2,51.8,82,30.06,10.0,East,5.8,-,N/A,,Clear,90,2013-06-18 05:53:00
1:13 AM,57.2,51.8,82,30.06,10.0,ESE,6.9,-,N/A,,Mostly Cloudy,110,2013-06-18 06:13:00
1:33 AM,57.2,51.8,82,30.06,10.0,ESE,5.8,-,N/A,,Mostly Cloudy,110,2013-06-18 06:33:00
1:53 AM,57.2,51.8,82,30.07,10.0,East,6.9,-,N/A,,Scattered Clouds,100,2013-06-18 06:53:00
2:13 AM,57.2,51.8,82,30.07,10.0,ESE,6.9,-,N/A,,Scattered Clouds,110,2013-06-18 07:13:00
2:33 AM,57.2,53.6,88,30.07,10.0,ESE,5.8,-,N/A,,Scattered Clouds,120,2013-06-18 07:33:00
2:53 AM,59.0,53.6,82,30.07,10.0,SE,8.1,-,N/A,,Scattered Clouds,140,2013-06-18 07:53:00
3:13 AM,59.0,53.6,82,30.08,10.0,SE,8.1,-,N/A,,Scattered Clouds,130,2013-06-18 08:13:00
3:33 AM,57.2,53.6,88,30.08,10.0,SE,8.1,-,N/A,,Scattered Clouds,140,2013-06-18 08:33:00
3:53 AM,57.2,53.6,88,30.08,10.0,SE,9.2,-,N/A,,Clear,130,2013-06-18 08:53:00
4:13 AM,57.2,53.6,88,30.08,10.0,SE,9.2,-,N/A,,Clear,130,2013-06-18 09:13:00
4:33 AM,59.0,53.6,82,30.08,10.0,SE,9.2,-,N/A,,Clear,130,2013-06-18 09:33:00
4:53 AM,57.2,53.6,88,30.08,10.0,SE,9.2,-,N/A,,Clear,140,2013-06-18 09:53:00
5:13 AM,57.2,53.6,88,30.08,10.0,SE,9.2,-,N/A,,Clear,140,2013-06-18 10:13:00
5:33 AM,55.4,53.6,94,30.09,10.0,SE,8.1,-,N/A,,Clear,140,2013-06-18 10:33:00
5:53 AM,55.4,51.8,88,30.09,10.0,SSE,8.1,-,N/A,,Clear,150,2013-06-18 10:53:00
6:13 AM,55.4,53.6,94,30.10,10.0,SE,8.1,-,N/A,,Clear,140,2013-06-18 11:13:00
6:33 AM,57.2,53.6,88,30.10,10.0,SE,8.1,-,N/A,,Clear,140,2013-06-18 11:33:00
6:53 AM,57.2,55.4,94,30.10,10.0,SSE,10.4,-,N/A,,Clear,150,2013-06-18 11:53:00
7:13 AM,60.8,55.4,82,30.10,10.0,SSE,11.5,-,N/A,,Clear,160,2013-06-18 12:13:00
7:33 AM,62.6,55.4,77,30.10,10.0,SSE,12.7,-,N/A,,Clear,160,2013-06-18 12:33:00
7:54 AM,64.4,55.4,73,30.09,10.0,South,13.8,-,N/A,,Clear,170,2013-06-18 12:54:00
8:13 AM,64.4,55.4,73,30.09,10.0,South,13.8,-,N/A,,Clear,170,2013-06-18 13:13:00
8:33 AM,64.4,57.2,77,30.10,10.0,South,13.8,-,N/A,,Clear,180,2013-06-18 13:33:00
8:54 AM,66.2,55.4,68,30.09,10.0,South,10.4,-,N/A,,Clear,180,2013-06-18 13:54:00
9:13 AM,68.0,57.2,68,30.10,10.0,South,12.7,-,N/A,,Scattered Clouds,190,2013-06-18 14:13:00
9:33 AM,66.2,55.4,68,30.10,10.0,South,10.4,-,N/A,,Overcast,190,2013-06-18 14:33:00
9:54 AM,68.0,55.4,64,30.09,10.0,South,11.5,-,N/A,,Overcast,180,2013-06-18 14:54:00
10:13 AM,68.0,55.4,64,30.09,10.0,South,9.2,16.1,N/A,,Overcast,170,2013-06-18 15:13:00
10:33 AM,69.8,55.4,60,30.09,10.0,South,9.2,-,N/A,,Mostly Cloudy,180,2013-06-18 15:33:00
10:54 AM,69.8,55.4,60,30.08,10.0,South,10.4,-,N/A,,Mostly Cloudy,180,2013-06-18 15:54:00
11:13 AM,71.6,57.2,60,30.07,10.0,South,8.1,-,N/A,,Mostly Cloudy,180,2013-06-18 16:13:00
11:33 AM,71.6,57.2,60,30.07,10.0,SSE,9.2,-,N/A,,Mostly Cloudy,160,2013-06-18 16:33:00
11:54 AM,71.6,57.2,60,30.06,10.0,SSE,9.2,-,N/A,,Mostly Cloudy,160,2013-06-18 16:54:00
12:13 PM,71.6,57.2,60,30.06,10.0,SSE,9.2,-,N/A,,Mostly Cloudy,150,2013-06-18 17:13:00
12:33 PM,73.4,57.2,57,30.05,10.0,SSE,9.2,-,N/A,,Mostly Cloudy,150,2013-06-18 17:33:00
12:54 PM,71.6,57.2,60,30.04,10.0,ESE,8.1,-,N/A,,Overcast,110,2013-06-18 17:54:00
1:13 PM,73.4,57.2,57,30.04,10.0,SE,10.4,-,N/A,,Mostly Cloudy,140,2013-06-18 18:13:00
1:33 PM,73.4,57.2,57,30.03,10.0,ESE,11.5,-,N/A,,Mostly Cloudy,120,2013-06-18 18:33:00
1:54 PM,73.4,57.2,57,30.03,10.0,East,6.9,-,N/A,,Mostly Cloudy,100,2013-06-18 18:54:00
2:13 PM,73.4,55.4,53,30.02,10.0,SE,9.2,-,N/A,,Overcast,140,2013-06-18 19:13:00
2:33 PM,75.2,55.4,50,30.02,10.0,SSE,6.9,-,N/A,,Mostly Cloudy,160,2013-06-18 19:33:00
2:52 PM,73.4,55.4,53,30.01,10.0,SSE,8.1,-,N/A,,Mostly Cloudy,150,2013-06-18 19:52:00
3:13 PM,77.0,55.4,47,30.00,10.0,South,13.8,18.4,N/A,,Mostly Cloudy,170,2013-06-18 20:13:00
3:33 PM,78.8,55.4,44,30.00,10.0,SE,15.0,-,N/A,,Scattered Clouds,140,2013-06-18 20:33:00
3:53 PM,77.0,53.6,44,29.99,10.0,SSE,17.3,-,N/A,,Scattered Clouds,150,2013-06-18 20:53:00
4:13 PM,78.8,55.4,44,29.99,10.0,South,9.2,17.3,N/A,,Scattered Clouds,170,2013-06-18 21:13:00
4:33 PM,77.0,51.8,41,29.98,10.0,South,3.5,10.4,N/A,,Mostly Cloudy,190,2013-06-18 21:33:00
4:53 PM,78.8,53.6,42,29.98,10.0,SSW,10.4,-,N/A,,Mostly Cloudy,200,2013-06-18 21:53:00
5:13 PM,78.8,53.6,42,29.97,10.0,SSE,11.5,-,N/A,,Mostly Cloudy,160,2013-06-18 22:13:00
5:33 PM,77.0,51.8,41,29.97,10.0,SSE,4.6,-,N/A,,Overcast,160,2013-06-18 22:33:00
5:53 PM,78.8,53.6,42,29.96,10.0,SSE,6.9,-,N/A,,Overcast,160,2013-06-18 22:53:00
6:13 PM,77.0,51.8,41,29.96,10.0,South,5.8,-,N/A,,Mostly Cloudy,170,2013-06-18 23:13:00
6:33 PM,77.0,53.6,44,29.95,10.0,South,13.8,-,N/A,,Overcast,170,2013-06-18 23:33:00
6:53 PM,77.0,53.6,44,29.95,10.0,SSE,13.8,-,N/A,,Mostly Cloudy,160,2013-06-18 23:53:00
7:13 PM,77.0,53.6,44,29.94,10.0,SSE,12.7,-,N/A,,Mostly Cloudy,160,2013-06-19 00:13:00
7:33 PM,75.2,53.6,47,29.94,10.0,SE,12.7,-,N/A,,Mostly Cloudy,140,2013-06-19 00:33:00
7:53 PM,75.2,53.6,47,29.93,10.0,SE,11.5,-,N/A,,Scattered Clouds,140,2013-06-19 00:53:00
8:13 PM,73.4,53.6,50,29.93,10.0,SE,10.4,-,N/A,,Scattered Clouds,140,2013-06-19 01:13:00
8:33 PM,73.4,53.6,50,29.93,10.0,SE,10.4,-,N/A,,Scattered Clouds,140,2013-06-19 01:33:00
8:54 PM,71.6,53.6,53,29.93,10.0,SE,8.1,-,N/A,,Mostly Cloudy,130,2013-06-19 01:54:00
9:13 PM,71.6,53.6,53,29.93,10.0,SE,8.1,-,N/A,,Scattered Clouds,140,2013-06-19 02:13:00
9:33 PM,69.8,53.6,56,29.93,10.0,SE,8.1,-,N/A,,Mostly Cloudy,140,2013-06-19 02:33:00
9:53 PM,68.0,53.6,60,29.94,10.0,SSE,6.9,-,N/A,,Overcast,150,2013-06-19 02:53:00
10:13 PM,66.2,53.6,64,29.94,10.0,SE,6.9,-,N/A,,Mostly Cloudy,140,2013-06-19 03:13:00
10:33 PM,66.2,51.8,60,29.95,10.0,SE,6.9,-,N/A,,Mostly Cloudy,140,2013-06-19 03:33:00
10:53 PM,66.2,53.6,64,29.95,10.0,SE,5.8,-,N/A,,Overcast,140,2013-06-19 03:53:00
11:13 PM,66.2,53.6,64,29.95,10.0,SSE,6.9,-,N/A,,Overcast,150,2013-06-19 04:13:00
11:33 PM,64.4,51.8,64,29.94,10.0,SSE,6.9,-,N/A,,Mostly Cloudy,160,2013-06-19 04:33:00
11:53 PM,62.6,51.8,68,29.94,10.0,SSE,6.9,-,N/A,,Scattered Clouds,150,2013-06-19 04:53:00